DW0542 Weather Reports


Display with metric or nautical units.
time (UTC)temp
F
wind
direction
speed
MPH
gust
MPH
rain 1hr
in
rain 24hr
in
rain mn
in
humidity
%
barometer
mb
20260905220039 67 89 0.0 0.0 0.00 0.00 0.00 81 1011.0
20260905213110 69 83 0.0 1.0 0.00 0.00 0.00 79 1010.5
20260905210028 68 331 0.0 1.0 0.00 0.00 0.00 82 1010.3
20260905204525 68 328 0.0 0.0 0.00 0.00 0.00 81 1010.2
20260905203025 67 328 0.0 0.0 0.00 0.00 0.00 81 1010.3
20260905201531 67 328 0.0 0.0 0.00 0.00 0.00 81 1010.2
20260905200027 67 328 0.0 6.0 0.00 0.00 0.00 81 1010.1
20260905194520 67 326 0.0 4.0 0.00 0.00 0.00 80 1010.1
20260905193018 67 130 0.0 0.0 0.00 0.00 0.00 80 1009.9
20260905191518 68 130 0.0 1.0 0.00 0.00 0.00 78 1009.9
20260905190018 70 344 0.0 6.0 0.00 0.00 0.00 73 1010.0
20260905184514 71 290 0.0 0.0 0.00 0.00 0.00 71 1009.7
20260905183020 71 290 0.0 0.0 0.00 0.00 0.00 73 1009.7
20260905181512 71 290 0.0 0.0 0.00 0.00 0.00 74 1009.9
20260905180011 71 290 0.0 0.0 0.00 0.00 0.00 73 1009.9
20260905174545 72 8 0.0 2.0 0.00 0.00 0.00 72 1009.8
20260905173055 72 124 0.0 6.0 0.00 0.00 0.00 72 1009.6
20260905171539 72 327 0.0 4.0 0.00 0.00 0.00 74 1009.6
20260905170039 71 328 0.0 2.0 0.00 0.00 0.00 74 1009.6
20260905164536 71 326 0.0 8.0 0.00 0.00 0.00 73 1009.4
20260905163035 71 325 0.0 6.0 0.00 0.00 0.00 71 1009.4
20260905161504 71 328 0.0 13.0 0.00 0.00 0.00 72 1009.4
20260905160004 70 331 0.0 8.0 0.00 0.00 0.00 75 1009.4
20260905154502 69 334 0.0 6.0 0.00 0.00 0.00 74 1009.7
20260905153001 70 334 0.0 4.0 0.00 0.00 0.00 75 1009.8
20260905151612 70 339 0.0 8.0 0.00 0.00 0.00 74 1009.7
20260905144559 69 334 0.0 8.0 0.00 0.00 0.00 74 1009.4
20260905143200 70 339 4.0 15.0 0.00 0.00 0.00 74 1009.3
20260905141556 70 332 5.0 11.0 0.00 0.00 0.00 74 1009.4
20260905140056 70 339 5.0 12.0 0.00 0.00 0.00 74 1009.4
20260905134559 69 328 0.0 6.0 0.00 0.00 0.00 76 1009.5
20260905133056 68 324 1.0 10.0 0.00 0.00 0.00 78 1009.4
20260905131552 68 307 5.0 10.0 0.00 0.00 0.00 79 1009.6
20260905130051 67 326 0.0 6.0 0.00 0.00 0.00 80 1009.7
20260905124532 66 324 1.0 6.0 0.00 0.00 0.00 80 1009.6
20260905123018 66 326 0.0 10.0 0.00 0.00 0.00 81 1009.6
20260905121513 65 321 5.0 12.0 0.00 0.00 0.00 82 1009.3
20260905120011 65 320 6.0 9.0 0.00 0.00 0.00 82 1009.2
20260905114510 64 325 5.0 8.0 0.00 0.00 0.00 83 1009.1
20260905113010 64 318 4.0 9.0 0.00 0.00 0.00 83 1009.1
20260905111609 64 331 2.0 6.0 0.00 0.00 0.00 84 1009.0
20260905110008 63 326 0.0 0.0 0.00 0.00 0.00 85 1008.8
20260905104510 63 326 0.0 3.0 0.00 0.00 0.00 85 1008.7
20260905103043 63 299 3.0 6.0 0.00 0.00 0.00 86 1008.6
20260905101549 61 293 0.0 0.0 0.00 0.00 0.00 86 1008.6
20260905100033 62 293 0.0 3.0 0.00 0.00 0.00 86 1008.5
20260905094533 61 293 0.0 0.0 0.00 0.00 0.00 86 1008.5
20260905093032 61 293 0.0 1.0 0.00 0.00 0.00 86 1008.6
20260905091532 60 293 0.0 0.0 0.00 0.00 0.00 86 1008.5
20260905090002 60 293 0.0 0.0 0.00 0.00 0.00 87 1008.5
20260905084602 61 293 0.0 0.0 0.00 0.00 0.00 87 1008.4
20260905083059 60 293 0.0 0.0 0.00 0.00 0.00 87 1008.4
20260905080104 60 293 0.0 0.0 0.00 0.00 0.00 87 1008.4
20260905074555 59 293 0.0 0.0 0.00 0.00 0.00 87 1008.5
20260905073029 59 293 0.0 0.0 0.00 0.00 0.00 87 1008.6
20260905071527 59 293 0.0 0.0 0.00 0.00 0.00 87 1008.7
20260905070025 59 293 0.0 0.0 0.00 0.00 0.00 87 1008.7
20260905064518 59 293 0.0 0.0 0.00 0.00 0.00 87 1008.9
20260905063017 60 293 0.0 0.0 0.00 0.00 0.00 87 1008.9
20260905061515 60 293 0.0 0.0 0.00 0.00 0.00 87 1009.1
20260905060044 61 293 0.0 0.0 0.00 0.00 0.00 87 1009.3
20260905054551 61 293 0.0 0.0 0.00 0.00 0.00 87 1009.3
20260905053041 61 293 0.0 0.0 0.00 0.00 0.00 87 1009.3
20260905051541 61 293 0.0 0.0 0.00 0.00 0.00 87 1009.4
20260905050036 62 293 0.0 0.0 0.00 0.00 0.00 86 1009.5
20260905044535 62 293 0.0 0.0 0.00 0.00 0.00 86 1009.4
20260905043032 62 293 0.0 0.0 0.00 0.00 0.00 86 1009.2
20260905041531 63 293 0.0 0.0 0.00 0.00 0.00 86 1009.2
20260905040033 63 293 0.0 0.0 0.00 0.00 0.00 86 1009.2
20260905034531 63 293 0.0 0.0 0.00 0.00 0.00 86 1009.3
20260905033031 63 293 0.0 0.0 0.00 0.00 0.00 86 1009.2
20260905031529 63 293 0.0 0.0 0.00 0.00 0.00 86 1009.1
20260905030022 64 293 0.0 0.0 0.00 0.00 0.00 85 1009.2
20260905024520 64 293 0.0 0.0 0.00 0.00 0.00 85 1009.1
20260905023020 64 293 0.0 0.0 0.00 0.00 0.00 85 1009.1
20260905021517 65 293 0.0 0.0 0.00 0.00 0.00 85 1009.1
20260905020018 65 293 0.0 0.0 0.00 0.00 0.00 84 1009.3
20260905014511 65 293 0.0 0.0 0.00 0.00 0.00 84 1009.5
20260905013006 66 293 0.0 0.0 0.00 0.00 0.00 84 1009.7
20260905011505 67 293 0.0 0.0 0.00 0.00 0.00 83 1009.7
20260905010059 67 293 0.0 0.0 0.00 0.00 0.00 83 1009.6
20260905004623 67 293 0.0 0.0 0.00 0.00 0.00 82 1009.6
20260905003056 68 293 0.0 0.0 0.00 0.00 0.00 81 1009.4
20260905001551 69 293 0.0 0.0 0.00 0.00 0.00 79 1009.3
20260905000045 70 293 0.0 0.0 0.00 0.00 0.00 76 1009.1
20260904234541 71 293 0.0 0.0 0.00 0.00 0.00 74 1009.0
20260904233037 74 293 0.0 0.0 0.00 0.00 0.00 69 1009.0
20260904231536 75 293 0.0 0.0 0.00 0.00 0.00 65 1008.9
20260904230043 76 293 0.0 0.0 0.00 0.00 0.00 64 1008.8
20260904224528 77 277 0.0 3.0 0.00 0.00 0.00 62 1008.7
20260904223023 78 296 0.0 3.0 0.00 0.00 0.00 61 1008.7
20260904221524 78 302 4.0 10.0 0.00 0.00 0.00 59 1008.5